[Date Prev][Date Next][Thread Prev][Thread Next] - [Date Index][Thread Index][Author Index]
2 Line ISS Keps 7-22
- Subject: [sarex] 2 Line ISS Keps 7-22
- From: "Dave Larsen" <doc@xxxxxxxxxxx>
- Date: Thu, 22 Jul 2004 05:34:38 -0700
ISS
1 25544U 98067A 04204.43761574 .00018361 00000-0 15412-3 0 2782
2 25544 51.6316 145.9028 0006175 34.3809 116.3471 15.69966104323850
----
Via the sarex mailing list at AMSAT.ORG courtesy of AMSAT-NA.
To unsubscribe, send "unsubscribe sarex" to Majordomo@amsat.org
AMSAT Home